CZ-6A DEB, 55205

Orbit data source: Space-Track

CZ-6A DEB, 55205 is space debris in SSO originally from a launch on Fri, 11 Nov 2022 UTC launched from the Taiyaun Space Center, China (TSC). Debris objects in space refer to the collection of defunct objects orbiting the Earth. Examples of debris include non-operational satellites, rocket bodies, and fragments generated from explosions, collisions, or faulty payload assembly.

Loading next visibility...
Identifier
55205, 2022-151VW
Orbit
SSO
Country
Flag of CNCN / PRC
Related business
Manufacturer
SAST
Mission
Spacecraft
Bus & Motor
Unknown
Mass
Unknown
Launch date (UTC)
2022-11-11 (3 years ago)
Launch vehicle
Unknown
Launch site
Taiyaun Space Center, China (TSC)
Object type
Payload
Rocket body
Debris
Shape & HBR
Unknown shape, 0.1 m
Radar Cross Section
Small (<0.1 m²)

Expand to show TLE details & history
Last TLE update: 1 day ago

TLE from 1 day ago
0 CZ-6A DEB
1 55205U 22151VW  25349.60593472  .00006852  00000-0  12793-2 0  9992
2 55205  98.6295  38.1255 0077416 133.9662 226.7958 14.63358184158137
Epoch: 2025-12-15T14:32Z
TLE epoch observation values (Epoch: 2025-12-15T14:32:32.759Z)
Latitude
-0.0001°
Longitude
95.48693°
Altitude
722.979 km
Speed
7.474 km/s
True Right ascension
02h 32m 30s
True Declination
0° 00' 00"
Sunlit
Object was in full shadow at epoch
Visualization orbit readout
Latitude
Unknown
Longitude
Unknown
Altitude
Unknown
Speed
Unknown
Apparent Right ascension
Unknown
Apparent Declination
Unknown
Sunlit
N/A
Visualization observer readout
Local Sidereal Time
15:44:01
Azimuth
Unknown
Elevation
Unknown
Doppler factor
Unknown
Orbital elements
Apogee altitude
734.085 km
Perigee altitude
624.811 km
Semi-major axis
7,057.585 km
Eccentricity
0.00774
Inclination
98.6295°
RAAN
38.1255°
Arg. of periapsis
133.9662°
True anomaly
226.15343°
Mean anomaly
226.7958°
Eccentric anomaly
226.47419°
Mean motion
3.66066 °/min
Orbital period
98.34 mins
BSTAR
0.0012793
Loading maneuver chart data...
Computing Atmospheric mass density...
Loading historical data...
Loading historical data...
Loading historical data...
Loading historical data...
Loading historical data...
Loading historical data...
Loading historical data...

Documentation

Showing up to 5 results
|